sat.trackr.live / text

‹ back to catalog

KUIPER-00388

NORAD 68922 · 2026-098D

PAYLOAD ACTIVE UNKNOWN

§ Identity

Operator
Country
US
Launch date
2026-04-30
Launch site
FRGUI
Launch vehicle
Mass (kg)
RCS (m²)

External: N2YO · Heavens-Above · Gunter

§ Orbital elements

Epoch: 2026-09-19T18:35:05.065152Z

Period
97.30 min
Inclination
51.9016°
Eccentricity
0.0000374
Mean motion
14.79935381 rev/d
Perigee alt
629.3 km
Apogee alt
629.8 km
Semi-major
7,007.7 km
B*
3.0310e-4
RAAN
5.0533°
Arg perigee
98.8431°
Mean anomaly
261.2574°
Rev number
2,141

§ Raw data

KUIPER-003881 68922U 26098D   26262.77436418  .00002090  00000+0  30310-3 0  99902 68922  51.9016   5.0533 0000374  98.8431 261.2574 14.79935381 21419

JSON: /api/v1/satellites/68922 · /tle

For live sub-satellite position, see the globe view (requires WebGL).

§ Visibility from observer

Set your observer location to see the next 7 days of passes ≥ 10°. The values pass through the URL so the page stays shareable.

No JS? Fill the form by hand. The geolocation button needs JavaScript.